Location: Unspecified
(0.0000°N, 0.0000°E)
Time: 14:03:47
(UTC+00:00)

AAUSAT3 - Pass Details

Date: 09 August 2024
Orbit: 756 x 773 km, 98.4° (Epoch: 17 September)

Event Time Altitude Azimuth Distance (km) Brightness Sun altitude
Rises 05:15:12 0° 141° (SE) 3,235 ? -12.1°
Reaches altitude 10° 05:18:02 10° 126° (SE) 2,303 ? -11.4°
Maximum altitude 05:21:47 21° 78° (ENE) 1,668 ? -10.5°
Drops below altitude 10° 05:25:29 10° 30° (NNE) 2,287 ? -9.6°
Sets 05:28:17 0° 14° (NNE) 3,206 ? -9.0°
